User: anonymous   Login
Location: ????????
(54.9045°N, 39.1041°E)
Time: 18:07:06
(UTC+00:00)
Language:

CZ-2C R/B - Orbit

View from above orbital plane
View from above orbital plane
View from above satellite
View from above satellite

Ground track
Ground track

The orbit data is extracted from the following two-line orbital elements,

1 28480U 04046B   24171.12318385  .00000164  00000-0  77106-4 0  9998
2 28480  98.1626 115.2164 0139849 213.1999 146.0350 14.26385405 18875
Epoch (UTC): 19 June 2024 02:57:23
Eccentricity: 0.0139849
inclination: 98.1626°
perigee height: 703 km
apogee height: 904 km
right ascension of ascending node: 115.2164°
argument of perigee: 213.1999°
revolutions per day: 14.26385405
mean anomaly at epoch: 146.0350°
orbit number at epoch: 1887

The dashed part of the orbit path shows where the satellite is in the earth's shadow,  

DLR